Weather History for KXVG - October, 2013

Change the Weather History Date:

Thursday, October 17, 2013

  Actual Average (KPWC) Record (KPWC)
Temperature  
Mean Temperature 39 °F -  
Max Temperature 48 °F 51 °F 64 °F (1997)
Min Temperature 30 °F 33 °F 23 °F (2003)
Degree Days  
Heating Degree Days 26    
Moisture  
Dew Point 40 °F    
Average Humidity 94    
Maximum Humidity 100    
Minimum Humidity 82    
Precipitation  
Precipitation 0.00 in - - ()
Sea Level Pressure  
Sea Level Pressure 29.81 in    
Wind  
Wind Speed 2 mph (NNW)    
Max Wind Speed 8 mph    
Max Gust Speed 17 mph    
Visibility 9 miles    
Events Rain    
Averages and records for this station are not official NWS values.
T = Trace of Precipitation, MM = Missing Value Source: NWS Daily Summary

Daily Weather History Graph

Daily Weather History Graph

Search for Another Location

Airport or City:

Trip Planner

Search our weather history database for the weather conditions in past years. The results will help you decide how hot, cold, wet, or windy it might be!

Date:

Astronomy

Oct. 17, 2013 Rise Set
Actual Time 7:38 AM CDT 6:25 PM CDT
Civil Twilight 7:07 AM CDT 6:56 PM CDT
Nautical Twilight 6:31 AM CDT 7:31 PM CDT
Astronomical Twilight 5:56 AM CDT 8:06 PM CDT
Moon 5:42 PM CDT (10/17) 6:07 AM CDT (10/17)
Length of Visible Light 11h 48m
Length of Day
10h 47m
Waxing Gibbous, 98% of the Moon is Illuminated
Oct 17
Waxing Gibbous
Oct 18
Full
Oct 26
Last Quarter
Nov 3
New
Nov 9
First Quarter

Hourly Weather History & Observations

Time (CDT) Temp. Windchill Dew Point Humidity Pressure Visibility Wind Dir Wind Speed Gust Speed Precip Events Conditions
12:16 AM 30.2 °F - 30.2 °F 100% 29.81 in 7.0 mi Calm Calm - N/A   Clear
12:36 AM 32.0 °F - 32.0 °F 100% 29.80 in 7.0 mi Calm Calm - N/A   Clear
12:56 AM 33.8 °F - 32.0 °F 93% 29.80 in 7.0 mi Calm Calm - N/A   Clear
1:16 AM 33.8 °F - 33.8 °F 100% 29.79 in 7.0 mi Calm Calm - N/A   Scattered Clouds
1:36 AM 33.8 °F - 33.8 °F 100% 29.79 in 7.0 mi Calm Calm - N/A   Scattered Clouds
1:56 AM 33.8 °F - 33.8 °F 100% 29.79 in 5.0 mi Calm Calm - N/A   Scattered Clouds
2:16 AM 35.6 °F - 33.8 °F 93% 29.79 in 7.0 mi Calm Calm - N/A   Mostly Cloudy
2:36 AM 35.6 °F - 35.6 °F 100% 29.79 in 5.0 mi Calm Calm - N/A   Overcast
2:56 AM 37.4 °F - 37.4 °F 100% 29.78 in 5.0 mi Calm Calm - N/A   Overcast
3:16 AM 37.4 °F - 37.4 °F 100% 29.78 in 7.0 mi Calm Calm - N/A   Overcast
3:36 AM 39.2 °F - 39.2 °F 100% 29.78 in 10.0 mi Calm Calm - N/A   Overcast
3:56 AM 41.0 °F - 39.2 °F 93% 29.78 in 10.0 mi Calm Calm - N/A   Overcast
4:16 AM 39.2 °F - 39.2 °F 100% 29.77 in 10.0 mi Calm Calm - N/A   Overcast
4:36 AM 39.2 °F - 39.2 °F 100% 29.77 in 10.0 mi Calm Calm - N/A   Overcast
4:56 AM 41.0 °F - 39.2 °F 93% 29.77 in 10.0 mi Calm Calm - N/A   Overcast
5:16 AM 41.0 °F - 39.2 °F 93% 29.78 in 7.0 mi Calm Calm - N/A Rain Light Rain
5:36 AM 41.0 °F - 39.2 °F 93% 29.78 in 7.0 mi Calm Calm - N/A Rain Light Rain
5:57 AM 41.0 °F - 41.0 °F 100% 29.78 in 7.0 mi Calm Calm - N/A   Overcast
6:16 AM 41.0 °F - 41.0 °F 100% 29.78 in 10.0 mi Calm Calm - N/A Rain Rain
6:36 AM 42.8 °F - 41.0 °F 93% 29.78 in 10.0 mi Calm Calm - N/A Rain Rain
6:56 AM 42.8 °F - 41.0 °F 93% 29.78 in 10.0 mi Calm Calm - N/A Rain Light Rain
7:16 AM 42.8 °F - 41.0 °F 93% 29.78 in 5.0 mi Calm Calm - N/A   Drizzle
7:36 AM 42.8 °F - 42.8 °F 100% 29.78 in 10.0 mi Calm Calm - N/A   Drizzle
7:56 AM 42.8 °F - 42.8 °F 100% 29.78 in 7.0 mi Calm Calm - N/A   Light Drizzle
8:16 AM 42.8 °F - 42.8 °F 100% 29.78 in 10.0 mi Calm Calm - N/A   Overcast
8:36 AM 44.6 °F - 42.8 °F 93% 29.78 in 10.0 mi Calm Calm - N/A   Overcast
8:56 AM 44.6 °F - 42.8 °F 93% 29.78 in 10.0 mi Calm Calm - N/A   Overcast
9:16 AM 44.6 °F - 42.8 °F 93% 29.79 in 10.0 mi Calm Calm - N/A   Overcast
9:36 AM 44.6 °F - 42.8 °F 93% 29.79 in 10.0 mi Calm Calm - N/A   Overcast
9:56 AM 44.6 °F - 42.8 °F 93% 29.80 in 10.0 mi Calm Calm - N/A   Overcast
10:16 AM 44.6 °F 43.1 °F 42.8 °F 93% 29.80 in 10.0 mi NNW 3.5 mph - N/A   Overcast
10:36 AM 44.6 °F - 42.8 °F 93% 29.80 in 10.0 mi Calm Calm - N/A   Overcast
10:56 AM 46.4 °F 44.3 °F 42.8 °F 87% 29.80 in 10.0 mi NW 4.6 mph - N/A   Mostly Cloudy
11:16 AM 46.4 °F 43.5 °F 42.8 °F 87% 29.80 in 10.0 mi NNW 5.8 mph - N/A   Light Drizzle
11:36 AM 46.4 °F 43.5 °F 42.8 °F 87% 29.81 in 10.0 mi NNW 5.8 mph - N/A   Light Drizzle
11:56 AM 46.4 °F 43.5 °F 42.8 °F 87% 29.81 in 10.0 mi NNW 5.8 mph - N/A   Scattered Clouds
12:16 PM 46.4 °F 42.9 °F 42.8 °F 87% 29.81 in 10.0 mi North 6.9 mph - N/A   Drizzle
12:36 PM 46.4 °F 42.9 °F 42.8 °F 87% 29.81 in 10.0 mi North 6.9 mph - N/A   Light Drizzle
12:56 PM 48.2 °F - 42.8 °F 82% 29.81 in 10.0 mi North 6.9 mph 17.3 mph N/A Rain Light Rain
1:16 PM 48.2 °F - 42.8 °F 82% 29.80 in 10.0 mi North 5.8 mph - N/A   Mostly Cloudy
1:36 PM 46.4 °F 42.4 °F 42.8 °F 87% 29.80 in 10.0 mi NNW 8.1 mph - N/A   Overcast
1:56 PM 46.4 °F 42.9 °F 42.8 °F 87% 29.81 in 10.0 mi NNW 6.9 mph - N/A   Overcast
2:17 PM 44.6 °F 40.7 °F 41.0 °F 87% 29.81 in 10.0 mi North 6.9 mph - N/A   Overcast
2:36 PM 44.6 °F 42.2 °F 41.0 °F 87% 29.81 in 10.0 mi North 4.6 mph - N/A   Overcast
2:56 PM 44.6 °F 41.4 °F 41.0 °F 87% 29.81 in 7.0 mi NW 5.8 mph - N/A   Drizzle
3:16 PM 44.6 °F 40.7 °F 42.8 °F 93% 29.81 in 3.0 mi NNW 6.9 mph - N/A   Drizzle
3:36 PM 44.6 °F 41.4 °F 42.8 °F 93% 29.81 in 3.0 mi North 5.8 mph - N/A   Drizzle
3:56 PM 42.8 °F 38.6 °F 42.8 °F 100% 29.82 in 3.0 mi NW 6.9 mph - N/A   Light Drizzle
4:16 PM 42.8 °F 40.1 °F 41.0 °F 93% 29.82 in 5.0 mi NNW 4.6 mph - N/A   Light Drizzle
4:36 PM 42.8 °F 39.3 °F 41.0 °F 93% 29.82 in 10.0 mi NNW 5.8 mph - N/A   Overcast
4:56 PM 42.8 °F 39.3 °F 41.0 °F 93% 29.82 in 10.0 mi NNW 5.8 mph - N/A   Drizzle
5:16 PM 42.8 °F 40.1 °F 41.0 °F 93% 29.82 in 10.0 mi North 4.6 mph - N/A   Drizzle
5:36 PM 42.8 °F 39.3 °F 41.0 °F 93% 29.83 in 7.0 mi North 5.8 mph - N/A Rain Light Rain
5:56 PM 42.8 °F 41.1 °F 41.0 °F 93% 29.84 in 10.0 mi NNW 3.5 mph - N/A Rain Light Rain
6:16 PM 42.8 °F 39.3 °F 41.0 °F 93% 29.84 in 7.0 mi North 5.8 mph - N/A   Drizzle
6:36 PM 41.0 °F 36.4 °F 39.2 °F 93% 29.85 in 10.0 mi North 6.9 mph - N/A   Drizzle
6:56 PM 41.0 °F 39.0 °F 39.2 °F 93% 29.85 in 7.0 mi North 3.5 mph - N/A Rain Light Rain
7:16 PM 41.0 °F - 39.2 °F 93% 29.86 in 10.0 mi Calm Calm - N/A   Drizzle
7:36 PM 41.0 °F 39.0 °F 39.2 °F 93% 29.86 in 10.0 mi NNW 3.5 mph - N/A   Drizzle
7:56 PM 39.2 °F 37.0 °F 39.2 °F 100% 29.86 in 10.0 mi NW 3.5 mph - N/A   Drizzle
8:16 PM 39.2 °F 37.0 °F 39.2 °F 100% 29.87 in 10.0 mi NW 3.5 mph - N/A   Light Drizzle
8:36 PM 39.2 °F 37.0 °F 37.4 °F 93% 29.87 in 10.0 mi NW 3.5 mph - N/A   Drizzle
8:56 PM 39.2 °F 35.9 °F 37.4 °F 93% 29.87 in 10.0 mi North 4.6 mph - N/A   Drizzle
9:16 PM 39.2 °F 34.2 °F 37.4 °F 93% 29.88 in 7.0 mi NW 6.9 mph - N/A Rain Light Rain
9:36 PM 39.2 °F 35.9 °F 37.4 °F 93% 29.88 in 10.0 mi NNW 4.6 mph - N/A   Overcast
9:56 PM 39.2 °F 37.0 °F 37.4 °F 93% 29.88 in 10.0 mi NNW 3.5 mph - N/A   Overcast
10:16 PM 39.2 °F 37.0 °F 37.4 °F 93% 29.88 in 10.0 mi NNW 3.5 mph - N/A   Overcast
10:36 PM 39.2 °F 37.0 °F 37.4 °F 93% 29.88 in 10.0 mi NNW 3.5 mph - N/A   Overcast
10:56 PM 39.2 °F 37.0 °F 37.4 °F 93% 29.88 in 10.0 mi NNW 3.5 mph - N/A   Overcast
11:16 PM 39.2 °F 35.9 °F 37.4 °F 93% 29.88 in 10.0 mi NW 4.6 mph - N/A   Overcast
11:36 PM 39.2 °F 35.9 °F 37.4 °F 93% 29.88 in 10.0 mi NNW 4.6 mph - N/A   Overcast
11:56 PM 39.2 °F 37.0 °F 35.6 °F 87% 29.88 in 10.0 mi NW 3.5 mph - N/A   Mostly Cloudy